Regional Weather Roundup
Issued by NWS

Home | Current Version | Previous Version | Text Only | Print | Product List | Glossary On
Versions: 1 2 3 4 5 6 7 8 9 10 11 12 13 14 15 16 17 18 19 20 21 22 23 24 25 26 27 28
000
ASUS44 KJAN 232210
RWRMS

MISSISSIPPI HOURLY WEATHER ROUNDUP
NATIONAL WEATHER SERVICE JACKSON MS
500 PM CDT SAT SEP 23 2017

NOTE: "FAIR: INDICATES FEW OR NO CLOUDS BELOW 12,000 FEET WITH NO
SIGNIFICANT WEATHER AND/OR OBSTRUCTIONS TO VISIBILITY.

MSZ001>002-007>008-010>013-018>021-025>028-034>036-232300-
NORTHWEST MISSISSIPPI

CITY           SKY/WX    TMP DP  RH WIND       PRES   REMARKS
BATESVILLE     FAIR      90  66  44 CALM      29.96S HX  92
CLARKSDALE       N/A     91  70  49 VRB6      29.93F HX  97
CLEVELAND      FAIR      91  68  47 S6        29.92S HX  94
GREENWOOD      MOSUNNY   92  68  45 NE6       29.92F HX  96
GREENVILLE     MOSUNNY   88  66  48 E9        29.91S HX  90
OLIVE BRANCH   MOSUNNY  N/A N/A N/A VRB6      29.95F
OXFORD         FAIR      81  68  65 VRB3      29.97S
TUNICA           N/A     90  68  48 E6        29.95S HX  93
WINONA         FAIR      89  68  49 N3        29.93F HX  92
$$

MSZ003>006-009-014>017-022>024-029>033-037>039-232300-
NORTHEAST MISSISSIPPI

CITY           SKY/WX    TMP DP  RH WIND       PRES   REMARKS
COLUMBUS AFB   MOSUNNY   80  72  75 SW3       29.95S
GOLDN TRIANGLE PTSUNNY   81  70  69 W5        29.96S
STARKVILLE     FAIR      73  68  83 CALM      29.97F
TUPELO         MOSUNNY   89  65  44 NE7       29.95F HX  91
$$

MSZ040-058-232300-
CENTRAL MISSISSIPPI

CITY           SKY/WX    TMP DP  RH WIND       PRES   REMARKS
JACKSON INTL   MOSUNNY   91  66  43 NE5       29.92F HX  93
JACKSON HAWKNS PTSUNNY   90  68  48 E3        29.93S HX  94
MADISON        FAIR      88  66  48 CALM      29.92F HX  90
MERIDIAN KEY   TSTM      80  69  69 MISG      29.94R
MERIDIAN NAS   PTSUNNY   88  68  51 E8        29.94S THUNDER HX  91
RAYMOND          N/A     91  70  49 CALM      29.91F HX  97
VICKSBURG VKS  CLEAR     91  68  46 E6        29.92S HX  95
$$

MSZ059>079-232300-
SOUTH MISSISSIPPI

CITY           SKY/WX    TMP DP  RH WIND       PRES   REMARKS
COLUMBIA       FAIR      90 N/A N/A VRB5      29.95S
HATTIESBURG    NOT AVBL
LAUREL         MOCLDY    89  66  45 SE3       29.91F HX  91
MCCOMB         NOT AVBL
NATCHEZ        SUNNY     90  67  46 E6        29.91F HX  93
PINE BELT      SUNNY     89  68  49 E3        29.92F HX  93
$$

MSZ080>082-232300-
COASTAL MISSISSIPPI

CITY           SKY/WX    TMP DP  RH WIND       PRES   REMARKS
BILOXI         SUNNY     87  71  59 S10       29.90S HX  92
PASCAGOULA     NOT AVBL
GULFPORT       NOT AVBL
$$

LAZ007>009-015>016-023>026-232300-
NORTHEAST LOUISIANA

CITY           SKY/WX    TMP DP  RH WIND       PRES   REMARKS
BASTROP        FAIR      88  73  60 CALM      29.92F HX  95
TALLULAH/VBURG SUNNY     91  64  40 E8        29.90F HX  92
VIDALIA          N/A    N/A N/A N/A MISG      29.89S
$$




USA.gov is the U.S. government's official web portal to all federal, state and local government web resources and services.